DateTimeUTC,F1_A11,F1_S11,BsB_S11,BsG_S11,BsR_S11,BbsB_S11,BbsG_S11,BbsR_S11,BaB_A11,BaG_A11,BaR_A11,Tu_S11,T_S11,Uu_S11,U_S11,P_S11,T1_A11
2021-11-05T07:00:00Z,00000200,21000000,,,,,,,-000.44,-000.21,-000.44,19.1,25.9,,00.0,0650.0,31.1
2021-11-05T07:01:00Z,00000200,21000000,,,,,,,0000.15,-000.10,0000.07,19.0,25.9,,00.0,0650.0,31.1
2021-11-05T07:02:00Z,00000200,21000000,,,,,,,-000.28,0000.07,-000.04,19.0,25.9,,00.0,0650.0,31.1
2021-11-05T07:03:00Z,00000200,61000000,,,,,,,-000.31,-000.22,0000.04,19.0,25.9,,00.0,0650.0,31.1
2021-11-05T07:04:00Z,00000200,41000000,-000.18,0000.17,-000.01,-000.40,-000.07,0000.36,-000.01,0000.01,-000.13,19.0,25.7,,00.0,0650.8,31.1
2021-11-05T07:05:00Z,00000200,01000000,-000.37,-000.26,0000.01,0000.20,-000.05,-000.10,0000.44,-000.03,-000.02,19.1,25.7,,00.0,0650.9,31.1
2021-11-05T07:06:00Z,00000200,01000000,-000.51,-000.26,-000.13,0000.10,0000.18,0000.33,-000.08,-000.05,0000.01,19.2,25.7,,00.0,0650.9,31.2
2021-11-05T07:07:00Z,00000200,01000000,0000.10,0000.07,0000.18,0000.28,0000.06,-000.03,-000.11,0000.41,0000.03,19.3,25.7,,00.0,0651.0,31.2
2021-11-05T07:08:00Z,00000200,01000000,-000.04,0000.14,-000.22,0000.38,0000.06,-000.15,-000.05,-000.43,0000.18,19.3,25.8,,00.0,0651.0,31.2
2021-11-05T07:09:00Z,00000200,01000000,0000.59,-000.26,-000.00,0000.92,0000.19,0000.04,-000.20,0000.20,-000.17,19.4,25.8,,00.0,0651.0,31.2
2021-11-05T07:10:00Z,00000200,01000000,-000.21,0000.42,0000.19,0000.21,-000.00,0000.16,-000.01,-000.22,0000.09,19.4,25.8,,00.0,0651.0,31.2
2021-11-05T07:11:00Z,00000200,01000000,-000.23,-000.06,0000.49,0000.57,-000.02,0000.18,0000.04,-000.05,-000.05,19.4,25.8,,00.0,0650.9,31.1
2021-11-05T07:12:00Z,00000200,01000000,-000.30,0000.12,-000.49,-000.56,0000.18,-000.17,-000.20,-000.23,-000.33,19.3,25.8,,00.0,0651.0,31.1
2021-11-05T07:13:00Z,00000200,01000000,-000.28,0000.34,0000.30,0000.44,0000.12,0000.07,-000.20,0000.22,0000.12,19.2,25.7,,00.0,0651.0,31.1
2021-11-05T07:14:00Z,00000200,01000000,-000.32,0000.39,0000.12,-000.13,0000.13,-000.21,0000.00,-000.27,-000.41,19.1,25.7,,00.0,0651.0,31.1
2021-11-05T07:15:00Z,00000200,01000000,0000.93,0000.27,-000.30,0000.86,0000.12,-000.37,0000.06,-000.04,0000.13,19.0,25.7,,00.0,0651.0,31.1
2021-11-05T07:16:00Z,00000200,01000000,0000.62,0000.14,0000.16,-000.39,0000.03,-000.15,-000.14,-000.22,-000.22,19.0,25.6,,00.0,0651.0,31.1
2021-11-05T07:17:00Z,00000200,01000000,-000.59,0000.06,0000.11,0000.52,0000.11,0000.11,0000.13,-000.05,0000.09,18.9,25.6,,00.0,0651.0,31.1
2021-11-05T07:18:00Z,00000200,01000000,-000.45,0000.15,-000.06,0000.00,0000.42,-000.03,-000.20,0000.11,-000.03,18.9,25.5,,00.0,0651.0,31.1
2021-11-05T07:19:00Z,00000200,01000000,-000.47,-000.08,0000.35,-000.14,-000.04,0000.23,-000.10,0000.06,0000.24,18.9,25.5,,00.0,0651.0,31.1
2021-11-05T07:20:00Z,00000200,01000000,-000.26,0000.07,0000.05,0000.27,0000.29,-000.17,0000.41,0000.05,-000.24,19.0,25.5,,00.0,0651.0,31.1
2021-11-05T07:21:00Z,00000200,01000000,-000.16,0000.40,0000.21,0000.61,-000.00,-000.11,0000.12,0000.15,0000.11,19.0,25.6,,00.0,0651.0,31.1
2021-11-05T07:22:00Z,00000200,01000000,0000.05,0000.48,0000.06,0001.13,-000.48,0000.13,-000.07,0000.06,0000.04,19.1,25.6,,00.0,0651.0,31.1
2021-11-05T07:23:00Z,00000200,01000000,-000.61,-000.07,0000.12,0000.06,0000.11,0000.29,-000.06,-000.00,0000.22,19.2,25.7,,00.0,0651.0,31.1
2021-11-05T07:24:00Z,00000200,01000000,0000.28,0000.12,-000.02,0000.16,-000.10,0000.27,-000.12,-000.22,-000.24,19.3,25.7,,00.0,0651.1,31.1
2021-11-05T07:25:00Z,00000200,01000000,-000.34,-000.19,0000.14,0000.72,0000.11,0000.35,0000.00,-000.04,0000.29,19.3,25.7,,00.0,0651.1,31.2
2021-11-05T07:26:00Z,00000200,01000000,-000.07,0000.25,0000.12,-000.02,0000.10,-000.15,-000.07,0000.19,-000.09,19.4,25.8,,00.0,0651.1,31.2
2021-11-05T07:27:00Z,00000200,01000000,0000.11,0000.09,0000.22,0000.65,0000.32,0000.16,-000.10,-000.23,-000.34,19.4,25.8,,00.0,0651.1,31.2
2021-11-05T07:28:00Z,00000200,01000000,-000.27,0000.03,0000.06,-000.07,-000.12,0000.06,-000.09,-000.25,-000.11,19.3,25.8,,00.0,0651.1,31.1
2021-11-05T07:29:00Z,00000200,01000000,-000.37,0000.22,-000.04,0000.93,0000.16,0000.09,-000.26,-000.09,0000.01,19.2,25.7,,00.0,0651.1,31.1
2021-11-05T07:30:00Z,00000200,01000000,-000.15,0000.04,0000.12,-000.09,0000.26,0000.01,0000.06,0000.12,-000.13,19.2,25.7,,00.0,0651.1,31.1
2021-11-05T07:31:00Z,00000200,01000000,0000.40,0000.25,-000.05,-000.30,0000.17,0000.03,0000.26,-000.05,0000.11,19.1,25.6,,00.0,0651.0,31.1
2021-11-05T07:32:00Z,00000200,01000000,0000.54,0000.21,0000.07,-000.00,0000.15,-000.41,-000.04,-000.12,-000.02,19.0,25.6,,00.0,0651.0,31.1
2021-11-05T07:33:00Z,00000200,01000000,0000.35,0000.20,-000.04,0000.66,0000.05,-000.06,0000.33,0000.35,0000.17,19.0,25.5,,00.0,0651.0,31.1
2021-11-05T07:34:00Z,00000200,01000000,-000.09,0000.25,-000.34,0000.56,-000.12,-000.57,-000.26,0000.14,0000.19,19.0,25.6,,00.0,0651.0,31.1
2021-11-05T07:35:00Z,00000200,01000000,0000.29,0000.03,-000.08,0000.32,0000.02,0000.08,0000.86,0000.37,0000.24,19.1,25.6,,00.0,0651.0,31.1
2021-11-05T07:36:00Z,00000200,01000000,0000.02,0000.16,0000.38,0000.50,0000.13,-000.26,0000.01,0000.41,0000.28,19.1,25.6,,00.0,0651.0,31.1
2021-11-05T07:37:00Z,00000200,01000000,0000.74,0000.19,-000.12,0000.33,0000.13,-000.06,-000.02,0000.21,-000.06,19.2,25.7,,00.0,0651.0,31.1
2021-11-05T07:38:00Z,00000200,01000000,0000.90,0000.45,-000.31,-000.07,0000.08,-000.13,0000.33,-000.10,0000.43,19.2,25.7,,00.0,0651.0,31.2
2021-11-05T07:39:00Z,00000200,01000000,-000.13,0000.52,0000.22,-000.39,-000.07,0000.45,0000.23,0000.31,0000.13,19.2,25.7,,00.0,0650.9,31.1
2021-11-05T07:40:00Z,00000200,01000000,0000.96,0000.18,0000.07,0000.17,-000.07,0000.12,-000.07,-000.01,-000.09,19.2,25.7,,00.0,0650.9,31.1
2021-11-05T07:41:00Z,00000200,01000000,0000.33,-000.07,0000.09,-000.06,-000.43,0000.05,0000.29,0000.29,0000.07,19.1,25.6,,00.0,0650.9,31.1
2021-11-05T07:42:00Z,00000200,01000000,0000.31,0000.29,-000.16,0000.11,0000.11,-000.43,-000.08,-000.09,-000.20,19.0,25.6,,00.0,0650.9,31.1
2021-11-05T07:43:00Z,00000200,01000000,0000.19,0000.02,-000.28,-000.29,-000.37,-000.08,0000.23,-000.06,0000.13,19.0,25.6,,00.0,0650.9,31.1
2021-11-05T07:44:00Z,00000200,01000000,0000.51,0000.07,0000.21,-000.15,0000.28,0000.10,-000.41,-000.31,0000.39,18.9,25.5,,00.0,0650.9,31.1
2021-11-05T07:45:00Z,00000200,01000000,0000.86,-000.19,0000.03,0000.12,-000.08,-000.13,0000.09,0000.06,-000.69,18.8,25.5,,00.0,0650.9,31.1
2021-11-05T07:46:00Z,00000200,01000000,0000.08,0000.26,0000.19,0000.18,0000.18,-000.07,0000.07,-000.13,0000.30,18.7,25.4,,00.0,0650.9,31.1
2021-11-05T07:47:00Z,00000200,01000000,0000.23,0000.09,0000.11,0000.79,-000.33,0000.22,0000.09,0000.12,0000.03,18.7,25.4,,00.0,0650.9,31.0
2021-11-05T07:48:00Z,00000200,01000000,-000.21,0000.03,-000.08,0000.23,0000.11,0000.04,-000.27,-000.16,-000.07,18.7,25.4,,00.0,0650.9,31.1
2021-11-05T07:49:00Z,00000200,01000000,0000.28,0000.13,0000.27,0000.30,-000.04,0000.31,0000.22,0000.36,0000.32,18.7,25.4,,00.0,0651.0,31.1
2021-11-05T07:50:00Z,00000200,01000000,-000.08,0000.24,-000.05,-000.12,0000.02,-000.21,-000.27,-000.37,-000.15,18.7,25.4,,00.0,0651.0,31.1
2021-11-05T07:51:00Z,00000200,01000000,-000.22,0000.32,0000.16,0000.04,0000.39,-000.10,0000.24,-000.08,-000.35,18.8,25.4,,00.0,0651.0,31.1
2021-11-05T07:52:00Z,00000200,01000000,-000.11,0000.28,0000.31,0000.09,-000.16,0000.25,-000.11,0000.32,0000.06,18.9,25.4,,00.0,0651.0,31.1
2021-11-05T07:53:00Z,00000200,01000000,-000.29,0000.20,0000.06,0000.46,0000.32,-000.05,0000.03,0000.18,0000.40,19.0,25.5,,00.0,0651.0,31.1
2021-11-05T07:54:00Z,00000200,01000000,-000.17,0000.27,0000.15,-000.02,-000.02,0000.34,-000.41,-000.19,-000.37,19.0,25.5,,00.0,0651.0,31.2
2021-11-05T07:55:00Z,00000200,01000000,-000.03,-000.04,0000.05,0000.10,0000.12,0000.39,0000.50,-000.11,0000.22,19.1,25.5,,00.0,0651.0,31.2
2021-11-05T07:56:00Z,00000200,01000000,-000.52,0000.12,-000.07,-000.13,0000.10,0000.27,-000.27,-000.06,-000.15,19.2,25.6,,00.0,0651.0,31.2
2021-11-05T07:57:00Z,00000200,41000000,,,,,,,0000.31,0000.49,0000.18,19.2,25.6,,00.0,0651.0,31.1
2021-11-05T07:58:00Z,00000200,61000000,,,,,,,-000.13,-000.20,-000.07,18.8,25.7,,00.0,0650.1,31.1
2021-11-05T07:59:00Z,00000200,21000000,,,,,,,-000.17,-000.28,-000.42,18.8,25.8,,00.0,0650.0,31.1
